Home > Time Zones > World Clock > Weather > Spain > Jaén > Past weeks

Flag for Spain Weather past 2 weeks in Jaén, Spain

Now
52 °F

Cool.


Feels Like: 50 °F
Forecast: 48 / 67 °F
Wind: 8 mph from West

Location: Granada / Aeropuerto


UV Index: 5 (Moderate)

Visibility: 19 mi


Pressure: 29.83 "Hg

Humidity: 79%

Dew point: 46 °F

Location of JaénLocation

Historic Weather in Jaén

°F

Jaén temperature yesterday

Maximum temperature yesterday: 69 °F (at 7:00 PM)
Minimum temperature yesterday: 54 °F (at 6:00 AM)
Average temperature yesterday: 61 °F

Past Weeks' High & Low Weather Summary

 TemperatureHumidityPressure
High90 °F (Apr 8, 5:00 PM)98% (Apr 6, 6:00 AM)30.23 "Hg (Apr 6, 6:00 AM)
Low44 °F (Apr 6, 8:00 AM)11% (Apr 10, 5:00 PM)29.69 "Hg (Apr 19, 6:00 PM)
Average65 °F57%30.01 "Hg
* Reported Apr 5 2:00 AM — Apr 20 2:00 AM, Jaén, Weather by CustomWeather, © 2014

Note: Actual official high and low records may vary slightly from our data, if they occured in-between our weather recording intervals... More about our weather records

Advertising

Historic Weather Conditions — Data for Previous 24 hours

 ConditionsComfort  
Time TempWeatherWind HumidityBarometerVisibility
2:00 AM
Apr 20
52 °FCool.8 mph79%29.83 "Hg19 mi
1:00 AM53 °FCool.9 mph77%29.83 "Hg17 mi
12:00 AM56 °FCool.14 mph74%29.80 "Hg14 mi
11:00 PM
Apr 19
58 °FPassing clouds.12 mph70%29.77 "Hg12 mi
10:00 PM58 °FCool.2 mph70%29.76 "Hg14 mi
9:00 PM62 °FCool.8 mph61%29.72 "Hg18 mi
8:00 PM67 °FScattered clouds.12 mph53%29.70 "Hg16 mi
7:00 PM69 °FMild.15 mph51%29.70 "Hg17 mi
6:00 PM67 °FMild.17 mph53%29.69 "Hg11 mi
5:00 PM67 °FOvercast.13 mph61%29.71 "Hg12 mi
4:00 PM66 °FMild.12 mph65%29.74 "Hg14 mi
3:00 PM67 °FOvercast.6 mph63%29.75 "Hg12 mi
2:00 PM66 °FOvercast.9 mph72%29.78 "Hg7 mi
1:00 PM64 °FFog.2 mph75%29.79 "Hg6 mi
12:00 PM62 °FFog.5 mph83%29.82 "Hg5 mi
11:00 AM61 °FFog.3 mph83%29.83 "Hg4 mi
10:00 AM59 °FFog.5 mph90%29.83 "Hg4 mi
9:00 AM58 °FFog.No wind92%29.83 "Hg3 mi
8:00 AM57 °FLow clouds.2 mph94%29.85 "Hg4 mi
7:00 AM56 °FFog.3 mph94%29.86 "Hg4 mi
6:00 AM54 °FFog.2 mph96%29.87 "Hg2 mi
5:00 AM54 °FFog.No wind90%29.87 "Hg5 mi
4:00 AM57 °FFog.2 mph88%29.87 "Hg6 mi
3:00 AM57 °FFog.No wind88%29.88 "Hg6 mi
Weather by CustomWeather, © 2014

See weather overview